Time,TemperatureF,DewpointF,PressureIn,WindDirection,WindDirectionDegrees,WindSpeedMPH,WindSpeedGustMPH,Humidity,HourlyPrecipIn,Conditions,Clouds,dailyrainin,SoftwareType,DateUTC
2013-04-09 00:02:00,72.0,63.0,29.66,SE,138,12.0,22.0,73,0.00,,,0.00,,2013-04-09 05:02:00,
2013-04-09 00:12:00,72.0,63.0,29.66,SE,145,13.0,22.0,74,0.00,,,0.00,,2013-04-09 05:12:00,
2013-04-09 00:22:00,72.0,63.0,29.66,SE,145,13.0,22.0,74,0.00,,,0.00,,2013-04-09 05:22:00,
2013-04-09 00:32:00,71.0,63.0,29.66,SE,144,11.0,16.0,75,0.00,,,0.00,,2013-04-09 05:32:00,
2013-04-09 00:42:00,71.0,63.0,29.65,SE,145,11.0,21.0,76,0.00,,,0.00,,2013-04-09 05:42:00,
2013-04-09 00:52:00,71.0,63.0,29.65,SE,145,11.0,21.0,76,0.00,,,0.00,,2013-04-09 05:52:00,
2013-04-09 01:02:00,71.0,63.0,29.65,SSE,155,13.0,24.0,77,0.00,,,0.00,,2013-04-09 06:02:00,
2013-04-09 01:12:00,71.0,64.0,29.65,SSE,154,10.0,16.0,78,0.00,,,0.00,,2013-04-09 06:12:00,
2013-04-09 01:22:00,71.0,64.0,29.65,SSE,154,10.0,16.0,78,0.00,,,0.00,,2013-04-09 06:22:00,
2013-04-09 01:32:00,71.0,64.0,29.65,SSE,167,7.0,21.0,79,0.00,,,0.00,,2013-04-09 06:32:00,
2013-04-09 01:42:00,71.0,64.0,29.65,SSE,167,7.0,21.0,79,0.00,,,0.00,,2013-04-09 06:42:00,
2013-04-09 01:52:00,71.0,64.0,29.65,SE,144,11.0,20.0,79,0.00,,,0.00,,2013-04-09 06:52:00,
2013-04-09 02:02:00,71.0,65.0,29.64,SE,140,11.0,24.0,80,0.00,,,0.00,,2013-04-09 07:02:00,
2013-04-09 02:12:00,71.0,65.0,29.64,SE,140,11.0,24.0,80,0.00,,,0.00,,2013-04-09 07:12:00,
2013-04-09 02:22:00,70.0,64.0,29.64,SE,135,10.0,20.0,81,0.00,,,0.00,,2013-04-09 07:22:00,
2013-04-09 02:32:00,70.0,64.0,29.64,ESE,114,10.0,18.0,81,0.00,,,0.00,,2013-04-09 07:32:00,
2013-04-09 02:42:00,70.0,64.0,29.64,ESE,114,10.0,18.0,81,0.00,,,0.00,,2013-04-09 07:42:00,
2013-04-09 02:52:00,70.0,65.0,29.63,SSE,153,10.0,18.0,83,0.00,,,0.00,,2013-04-09 07:52:00,
2013-04-09 03:02:00,69.0,65.0,29.62,SSE,152,14.0,24.0,86,0.00,,,0.00,,2013-04-09 08:02:00,
2013-04-09 03:12:00,69.0,65.0,29.62,SSE,152,14.0,24.0,86,0.00,,,0.00,,2013-04-09 08:12:00,
2013-04-09 03:22:00,69.0,65.0,29.62,SE,146,10.0,18.0,87,0.00,,,0.00,,2013-04-09 08:22:00,
2013-04-09 03:32:00,69.0,65.0,29.61,SE,138,12.0,22.0,87,0.00,,,0.00,,2013-04-09 08:32:00,
2013-04-09 03:42:00,69.0,65.0,29.61,SE,140,12.0,21.0,87,0.00,,,0.00,,2013-04-09 08:42:00,
2013-04-09 03:52:00,69.0,65.0,29.61,SE,140,12.0,21.0,87,0.00,,,0.00,,2013-04-09 08:52:00,
2013-04-09 04:02:00,69.0,65.0,29.60,SE,131,13.0,24.0,87,0.00,,,0.00,,2013-04-09 09:02:00,
2013-04-09 04:12:00,68.0,64.0,29.60,SE,134,9.0,18.0,88,0.00,,,0.00,,2013-04-09 09:12:00,
2013-04-09 04:22:00,68.0,64.0,29.60,SE,134,9.0,18.0,88,0.00,,,0.00,,2013-04-09 09:22:00,
2013-04-09 04:32:00,68.0,64.0,29.61,SE,143,12.0,24.0,88,0.00,,,0.00,,2013-04-09 09:32:00,
2013-04-09 04:43:00,68.0,64.0,29.61,SE,143,12.0,24.0,88,0.00,,,0.00,,2013-04-09 09:43:00,
2013-04-09 04:53:00,68.0,64.0,29.61,SSE,154,14.0,26.0,87,0.00,,,0.00,,2013-04-09 09:53:00,
2013-04-09 05:03:00,69.0,64.0,29.60,SSE,157,15.0,26.0,85,0.00,,,0.00,,2013-04-09 10:03:00,
2013-04-09 05:12:00,69.0,64.0,29.60,SSE,157,15.0,26.0,85,0.00,,,0.00,,2013-04-09 10:12:00,
2013-04-09 05:23:00,69.0,64.0,29.60,SE,141,18.0,30.0,84,0.00,,,0.00,,2013-04-09 10:23:00,
2013-04-09 05:32:00,70.0,65.0,29.60,SSE,155,17.0,31.0,84,0.00,,,0.00,,2013-04-09 10:32:00,
2013-04-09 05:42:00,70.0,65.0,29.60,SSE,155,17.0,31.0,84,0.00,,,0.00,,2013-04-09 10:42:00,
2013-04-09 05:53:00,70.0,65.0,29.61,SE,145,14.0,24.0,84,0.00,,,0.00,,2013-04-09 10:53:00,
2013-04-09 06:02:00,70.0,65.0,29.61,SE,140,14.0,26.0,84,0.00,,,0.00,,2013-04-09 11:02:00,
2013-04-09 06:12:00,70.0,65.0,29.61,SE,140,14.0,26.0,84,0.00,,,0.00,,2013-04-09 11:12:00,
2013-04-09 06:22:00,69.0,64.0,29.61,SSE,153,10.0,20.0,85,0.00,,,0.00,,2013-04-09 11:22:00,
2013-04-09 06:32:00,69.0,65.0,29.62,SE,145,9.0,20.0,86,0.00,,,0.00,,2013-04-09 11:32:00,
2013-04-09 06:42:00,69.0,65.0,29.62,SSE,151,10.0,24.0,86,0.00,,,0.00,,2013-04-09 11:42:00,
2013-04-09 06:52:00,69.0,65.0,29.62,SSE,151,10.0,24.0,86,0.00,,,0.00,,2013-04-09 11:52:00,
2013-04-09 07:02:00,69.0,65.0,29.63,SSE,151,9.0,22.0,86,0.00,,,0.00,,2013-04-09 12:02:00,
2013-04-09 07:12:00,69.0,65.0,29.63,SSE,151,9.0,22.0,86,0.00,,,0.00,,2013-04-09 12:12:00,
2013-04-09 07:22:00,69.0,65.0,29.63,SSE,149,10.0,20.0,87,0.00,,,0.00,,2013-04-09 12:22:00,
2013-04-09 07:32:00,69.0,65.0,29.63,SE,141,12.0,16.0,87,0.00,,,0.00,,2013-04-09 12:32:00,
2013-04-09 07:42:00,69.0,65.0,29.63,SE,141,12.0,16.0,87,0.00,,,0.00,,2013-04-09 12:42:00,
2013-04-09 07:53:00,69.0,65.0,29.64,SE,136,9.0,14.0,88,0.00,,,0.00,,2013-04-09 12:53:00,
2013-04-09 08:02:00,69.0,65.0,29.65,SE,136,6.0,15.0,88,0.00,,,0.00,,2013-04-09 13:02:00,
2013-04-09 08:12:00,69.0,65.0,29.65,SE,136,6.0,15.0,88,0.00,,,0.00,,2013-04-09 13:12:00,
2013-04-09 08:22:00,69.0,65.0,29.64,SE,139,10.0,21.0,87,0.00,,,0.00,,2013-04-09 13:22:00,
2013-04-09 08:32:00,69.0,65.0,29.63,SE,137,10.0,24.0,86,0.00,,,0.00,,2013-04-09 13:32:00,
2013-04-09 08:42:00,69.0,65.0,29.63,SE,137,10.0,24.0,86,0.00,,,0.00,,2013-04-09 13:42:00,
2013-04-09 08:53:00,70.0,65.0,29.63,SE,135,16.0,26.0,84,0.00,,,0.00,,2013-04-09 13:53:00,
2013-04-09 09:03:00,70.0,65.0,29.63,SE,145,14.0,25.0,83,0.00,,,0.00,,2013-04-09 14:03:00,
2013-04-09 09:12:00,70.0,65.0,29.63,SE,145,14.0,25.0,83,0.00,,,0.00,,2013-04-09 14:12:00,
2013-04-09 09:22:00,70.0,65.0,29.62,SE,141,13.0,35.0,83,0.00,,,0.00,,2013-04-09 14:22:00,
2013-04-09 09:32:00,71.0,65.0,29.63,SE,142,15.0,28.0,82,0.00,,,0.00,,2013-04-09 14:32:00,
2013-04-09 09:42:00,71.0,65.0,29.63,SE,142,15.0,28.0,82,0.00,,,0.00,,2013-04-09 14:42:00,
2013-04-09 09:52:00,71.0,65.0,29.63,SE,144,16.0,30.0,81,0.00,,,0.00,,2013-04-09 14:52:00,
2013-04-09 10:02:00,71.0,65.0,29.63,SE,139,16.0,26.0,80,0.00,,,0.00,,2013-04-09 15:02:00,
2013-04-09 10:12:00,71.0,65.0,29.63,SE,139,16.0,26.0,80,0.00,,,0.00,,2013-04-09 15:12:00,
2013-04-09 10:22:00,72.0,65.0,29.63,SE,135,13.0,23.0,79,0.00,,,0.00,,2013-04-09 15:22:00,
2013-04-09 10:33:00,72.0,65.0,29.61,SE,146,17.0,30.0,79,0.00,,,0.00,,2013-04-09 15:33:00,
2013-04-09 10:43:00,72.0,65.0,29.61,SE,146,17.0,30.0,79,0.00,,,0.00,,2013-04-09 15:43:00,
2013-04-09 10:53:00,73.0,65.0,29.61,SE,145,20.0,28.0,77,0.00,,,0.00,,2013-04-09 15:53:00,
2013-04-09 11:03:00,73.0,65.0,29.62,SE,140,19.0,30.0,77,0.00,,,0.00,,2013-04-09 16:03:00,
2013-04-09 11:13:00,73.0,65.0,29.62,SE,140,19.0,30.0,77,0.00,,,0.00,,2013-04-09 16:13:00,
2013-04-09 11:23:00,73.0,65.0,29.62,ESE,117,21.0,40.0,76,0.00,,,0.00,,2013-04-09 16:23:00,
2013-04-09 11:33:00,73.0,65.0,29.62,SSE,149,18.0,32.0,75,0.00,,,0.00,,2013-04-09 16:33:00,
2013-04-09 11:53:00,73.0,65.0,29.63,SSE,147,14.0,26.0,75,0.00,,,0.00,,2013-04-09 16:53:00,
2013-04-09 12:02:00,73.0,65.0,29.64,SSE,157,17.0,26.0,75,0.00,,,0.00,,2013-04-09 17:02:00,
2013-04-09 12:12:00,73.0,65.0,29.64,SSE,161,16.0,32.0,76,0.00,,,0.00,,2013-04-09 17:12:00,
2013-04-09 12:23:00,73.0,65.0,29.64,SSE,161,16.0,32.0,76,0.00,,,0.00,,2013-04-09 17:23:00,
2013-04-09 12:32:00,73.0,65.0,29.65,SSW,196,13.0,25.0,76,0.00,,,0.00,,2013-04-09 17:32:00,
2013-04-09 12:42:00,73.0,65.0,29.65,SSW,196,13.0,25.0,76,0.00,,,0.00,,2013-04-09 17:42:00,
2013-04-09 12:54:00,73.0,65.0,29.65,SSE,159,13.0,23.0,77,0.00,,,0.00,,2013-04-09 17:54:00,
2013-04-09 13:02:00,73.0,65.0,29.65,SE,144,12.0,25.0,77,0.00,,,0.00,,2013-04-09 18:02:00,
2013-04-09 13:12:00,73.0,65.0,29.65,SE,144,12.0,25.0,77,0.00,,,0.00,,2013-04-09 18:12:00,
2013-04-09 13:22:00,73.0,66.0,29.65,SSE,150,13.0,23.0,78,0.00,,,0.00,,2013-04-09 18:22:00,
2013-04-09 13:32:00,73.0,66.0,29.64,SSE,157,7.0,15.0,78,0.00,,,0.00,,2013-04-09 18:32:00,
2013-04-09 13:43:00,73.0,66.0,29.64,SSE,157,7.0,15.0,78,0.00,,,0.00,,2013-04-09 18:43:00,
2013-04-09 13:53:00,73.0,65.0,29.64,SSE,147,9.0,16.0,77,0.00,,,0.00,,2013-04-09 18:53:00,
2013-04-09 14:02:00,73.0,65.0,29.64,SSE,147,9.0,16.0,77,0.00,,,0.00,,2013-04-09 19:02:00,
2013-04-09 14:12:00,73.0,65.0,29.64,SSE,147,9.0,16.0,77,0.00,,,0.00,,2013-04-09 19:12:00,
2013-04-09 14:22:00,73.0,65.0,29.64,SSE,147,9.0,16.0,77,0.00,,,0.00,,2013-04-09 19:22:00,
2013-04-09 14:32:00,75.0,66.0,29.63,South,169,14.0,24.0,73,0.00,,,0.00,,2013-04-09 19:32:00,
2013-04-09 14:42:00,75.0,66.0,29.63,South,169,14.0,24.0,73,0.00,,,0.00,,2013-04-09 19:42:00,
2013-04-09 14:52:00,76.0,66.0,29.62,SE,137,8.0,18.0,72,0.00,,,0.00,,2013-04-09 19:52:00,
2013-04-09 15:02:00,77.0,67.0,29.61,SSE,155,11.0,22.0,71,0.00,,,0.00,,2013-04-09 20:02:00,
2013-04-09 15:12:00,77.0,66.0,29.61,SSE,163,12.0,21.0,69,0.00,,,0.00,,2013-04-09 20:12:00,
2013-04-09 15:22:00,77.0,66.0,29.61,SSE,163,12.0,21.0,69,0.00,,,0.00,,2013-04-09 20:22:00,
2013-04-09 15:33:00,78.0,67.0,29.60,SSE,157,10.0,22.0,69,0.00,,,0.00,,2013-04-09 20:33:00,
2013-04-09 15:42:00,78.0,67.0,29.60,SSE,157,10.0,22.0,69,0.00,,,0.00,,2013-04-09 20:42:00,
2013-04-09 15:52:00,78.0,67.0,29.60,SSE,159,12.0,24.0,68,0.00,,,0.00,,2013-04-09 20:52:00,
2013-04-09 16:02:00,78.0,67.0,29.59,ESE,111,15.0,24.0,68,0.00,,,0.00,,2013-04-09 21:02:00,
2013-04-09 16:13:00,78.0,67.0,29.59,ESE,111,15.0,24.0,68,0.00,,,0.00,,2013-04-09 21:13:00,
2013-04-09 16:22:00,78.0,67.0,29.59,ESE,111,15.0,24.0,68,0.00,,,0.00,,2013-04-09 21:22:00,
2013-04-09 16:33:00,79.0,68.0,29.59,ESE,123,14.0,23.0,69,0.00,,,0.00,,2013-04-09 21:33:00,
2013-04-09 16:42:00,79.0,68.0,29.59,ESE,123,14.0,23.0,69,0.00,,,0.00,,2013-04-09 21:42:00,
2013-04-09 16:53:00,79.0,68.0,29.59,SE,136,16.0,24.0,68,0.00,,,0.00,,2013-04-09 21:53:00,
2013-04-09 17:03:00,78.0,67.0,29.59,SE,142,10.0,22.0,68,0.00,,,0.00,,2013-04-09 22:03:00,
2013-04-09 17:12:00,79.0,68.0,29.60,SE,138,6.0,16.0,68,0.00,,,0.00,,2013-04-09 22:12:00,
2013-04-09 17:23:00,79.0,68.0,29.60,SE,138,6.0,16.0,68,0.00,,,0.00,,2013-04-09 22:23:00,
2013-04-09 17:33:00,79.0,68.0,29.60,SSE,155,7.0,13.0,68,0.00,,,0.00,,2013-04-09 22:33:00,
2013-04-09 17:42:00,79.0,68.0,29.60,SSE,155,7.0,13.0,68,0.00,,,0.00,,2013-04-09 22:42:00,
2013-04-09 17:53:00,80.0,68.0,29.59,ESE,113,13.0,21.0,66,0.00,,,0.00,,2013-04-09 22:53:00,
2013-04-09 18:02:00,80.0,68.0,29.59,SSE,148,13.0,21.0,66,0.00,,,0.00,,2013-04-09 23:02:00,
2013-04-09 18:12:00,80.0,68.0,29.58,SE,130,9.0,20.0,66,0.00,,,0.00,,2013-04-09 23:12:00,
2013-04-09 18:22:00,80.0,68.0,29.58,SE,130,9.0,20.0,66,0.00,,,0.00,,2013-04-09 23:22:00,
2013-04-09 18:32:00,80.0,67.0,29.58,SE,136,13.0,24.0,65,0.00,,,0.00,,2013-04-09 23:32:00,
2013-04-09 18:42:00,80.0,67.0,29.58,SE,136,13.0,24.0,65,0.00,,,0.00,,2013-04-09 23:42:00,
2013-04-09 18:53:00,80.0,68.0,29.58,SE,140,12.0,22.0,66,0.00,,,0.00,,2013-04-09 23:53:00,
2013-04-09 19:03:00,80.0,68.0,29.58,SE,140,12.0,22.0,66,0.00,,,0.00,,2013-04-10 00:03:00,
2013-04-09 19:12:00,80.0,68.0,29.58,SE,140,12.0,22.0,66,0.00,,,0.00,,2013-04-10 00:12:00,
2013-04-09 19:22:00,80.0,68.0,29.58,SE,127,10.0,18.0,66,0.00,,,0.00,,2013-04-10 00:22:00,
2013-04-09 19:32:00,80.0,68.0,29.57,SE,132,9.0,16.0,66,0.00,,,0.00,,2013-04-10 00:32:00,
2013-04-09 19:42:00,80.0,68.0,29.57,SE,132,9.0,16.0,66,0.00,,,0.00,,2013-04-10 00:42:00,
2013-04-09 19:52:00,79.0,67.0,29.57,SE,133,9.0,14.0,67,0.00,,,0.00,,2013-04-10 00:52:00,
2013-04-09 20:02:00,79.0,67.0,29.58,SE,126,9.0,13.0,67,0.00,,,0.00,,2013-04-10 01:02:00,
2013-04-09 20:12:00,78.0,67.0,29.57,SE,131,10.0,15.0,68,0.00,,,0.00,,2013-04-10 01:12:00,
2013-04-09 20:23:00,78.0,67.0,29.57,SE,131,10.0,15.0,68,0.00,,,0.00,,2013-04-10 01:23:00,
2013-04-09 20:32:00,78.0,67.0,29.57,SE,137,7.0,13.0,69,0.00,,,0.00,,2013-04-10 01:32:00,
2013-04-09 20:42:00,78.0,67.0,29.57,SE,137,7.0,13.0,69,0.00,,,0.00,,2013-04-10 01:42:00,
2013-04-09 20:53:00,77.0,66.0,29.57,SE,140,7.0,13.0,70,0.00,,,0.00,,2013-04-10 01:53:00,
2013-04-09 21:02:00,77.0,66.0,29.60,SE,130,6.0,12.0,70,0.00,,,0.00,,2013-04-10 02:02:00,
2013-04-09 21:12:00,77.0,66.0,29.60,SE,130,6.0,12.0,70,0.00,,,0.00,,2013-04-10 02:12:00,
2013-04-09 21:22:00,77.0,66.0,29.62,SE,138,3.0,12.0,70,0.00,,,0.00,,2013-04-10 02:22:00,
2013-04-09 21:32:00,77.0,67.0,29.62,SE,130,5.0,9.0,71,0.00,,,0.00,,2013-04-10 02:32:00,
2013-04-09 21:42:00,77.0,67.0,29.62,SE,130,5.0,9.0,71,0.00,,,0.00,,2013-04-10 02:42:00,
2013-04-09 21:52:00,77.0,68.0,29.62,SE,134,7.0,18.0,73,0.00,,,0.00,,2013-04-10 02:52:00,
2013-04-09 22:02:00,76.0,67.0,29.63,SE,142,9.0,14.0,74,0.00,,,0.00,,2013-04-10 03:02:00,
2013-04-09 22:12:00,76.0,67.0,29.63,SE,142,9.0,14.0,74,0.00,,,0.00,,2013-04-10 03:12:00,
2013-04-09 22:22:00,76.0,67.0,29.64,ESE,117,9.0,14.0,75,0.00,,,0.00,,2013-04-10 03:22:00,
2013-04-09 22:32:00,76.0,68.0,29.64,SE,124,5.0,12.0,76,0.00,,,0.00,,2013-04-10 03:32:00,
2013-04-09 22:43:00,76.0,68.0,29.64,SE,124,5.0,12.0,76,0.00,,,0.00,,2013-04-10 03:43:00,
2013-04-09 22:53:00,75.0,68.0,29.64,SE,127,9.0,16.0,78,0.00,,,0.00,,2013-04-10 03:53:00,
2013-04-09 23:03:00,75.0,68.0,29.65,ESE,115,8.0,12.0,79,0.00,,,0.00,,2013-04-10 04:03:00,
2013-04-09 23:13:00,75.0,68.0,29.65,ESE,115,8.0,12.0,79,0.00,,,0.00,,2013-04-10 04:13:00,
2013-04-09 23:23:00,74.0,67.0,29.65,ESE,111,6.0,12.0,80,0.00,,,0.00,,2013-04-10 04:23:00,
2013-04-09 23:33:00,74.0,68.0,29.65,SE,130,8.0,13.0,81,0.00,,,0.00,,2013-04-10 04:33:00,
2013-04-09 23:42:00,74.0,68.0,29.65,SE,130,8.0,13.0,81,0.00,,,0.00,,2013-04-10 04:42:00,
2013-04-09 23:53:00,74.0,68.0,29.65,ESE,122,5.0,9.0,82,0.00,,,0.00,,2013-04-10 04:53:00,